Probability
0 0 0 0 0 0 0 0 0 0 0 0 0 0 0 0 0 0 0 0 0 0 0 0 0 0 1 2 3 3 3 1 0 0 0 0 0 0 0 0 0 0 0 0
0 0 0 0 0 0 0 0 0 0 0 0 0 0 0 0 0 0 0 0 0 0 0 0 0 0 1 2 3 3 3 2 0 0 0 0 0 0 0 0 0 0 0 0
0 0 0 0 0 0 0 0 0 0 0 0 0 0 0 0 0 0 0 0 0 0 0 0 0 0 0 2 3 3 3 1 0 0 0 0 0 0 0 0 0 0 0 0
0 0 0 0 0 0 0 0 0 0 0 0 0 0 0 0 0 0 0 0 0 0 0 0 0 0 1 2 3 3 2 1 0 0 0 0 0 0 0 0 0 0 0 0
0 0 0 0 0 0 0 0 0 0 0 0 0 0 0 0 0 0 0 0 0 0 0 0 0 0 1 2 3 3 2 1 0 0 0 0 0 0 0 0 0 0 0 0
0 0 0 0 0 0 0 0 0 0 0 0 0 0 0 0 0 0 0 0 0 0 0 0 0 0 1 1 2 2 2 1 0 0 0 0 0 0 0 0 0 0 0 0
0 0 0 0 0 0 0 0 0 0 0 0 0 0 0 0 0 0 0 0 0 0 0 0 0 0 0 0 1 1 1 0 0 0 0 0 0 0 0 0 0 0 0 0
0 0 0 0 0 0 0 0 0 0 0 0 0 0 0 0 0 0 0 0 0 0 0 0 0 0 0 0 0 0 0 0 0 0 0 0 0 0 0 0 0 0 0 0
0 0 0 0 0 0 0 0 0 0 0 0 0 0 0 0 0 0 0 0 0 0 0 0 0 0 0 0 0 0 0 0 0 0 0 0 0 0 0 0 0 0 0 0
0 0 0 0 0 0 0 0 0 0 0 0 0 0 0 0 0 0 0 0 0 0 0 0 0 0 0 0 0 0 0 0 0 0 0 0 0 0 0 0 0 0 0 0
0 0 0 0 0 0 0 0 0 0 0 0 0 0 0 0 0 0 0 0 0 0 0 0 0 0 0 0 0 0 0 0 0 0 0 0 0 0 0 0 0 0 0 0
0 0 0 0 0 0 0 0 0 0 0 0 0 0 0 0 0 0 0 0 0 0 0 0 0 0 0 0 0 0 0 0 0 0 0 0 0 0 0 0 0 0 0 0
0 0 0 0 0 0 0 0 0 0 0 0 0 0 0 0 0 0 0 0 0 0 0 0 0 0 0 0 0 0 0 0 0 0 0 0 0 0 0 0 0 0 0 0
0 0 0 0 0 0 0 0 0 0 0 0 0 0 0 0 0 0 0 0 0 0 0 0 0 0 0 0 0 0 0 0 0 0 0 0 0 0 0 0 0 0 0 0
0 0 0 0 0 0 0 0 0 0 0 0 0 0 0 0 0 0 0 0 0 0 0 0 0 0 0 0 0 0 0 0 0 0 0 0 0 0 0 0 0 0 0 0
0 0 0 0 0 0 0 0 0 0 0 0 0 0 0 0 0 0 0 0 0 0 0 0 0 0 0 0 0 0 0 0 0 0 0 0 0 0 0 0 0 0 0 0
0 0 0 0 0 0 0 0 0 0 0 0 0 0 0 0 0 0 0 0 0 0 0 0 0 0 0 0 0 0 0 0 0 0 0 0 0 0 0 0 0 0 0 0
0 0 0 0 0 0 0 0 0 0 0 0 0 0 0 0 0 0 0 0 0 0 0 0 0 0 0 0 0 0 0 0 0 0 0 0 0 0 0 0 0 0 0 0
0 0 0 0 0 0 0 0 0 0 0 0 0 0 0 0 0 0 0 0 0 0 0 0 0 0 0 0 0 0 0 0 0 0 0 0 0 0 0 0 0 0 0 0
0 0 0 0 0 0 0 0 0 0 0 0 0 0 0 0 0 0 0 0 0 0 0 0 0 0 0 0 0 0 0 0 0 0 0 0 0 0 0 0 0 0 0 0
0 0 0 0 0 0 0 0 0 0 0 0 0 0 0 0 0 0 0 0 0 0 0 0 0 0 0 0 0 0 0 0 0 0 1 1 1 0 0 0 0 0 0 0
0 0 0 0 0 0 0 0 0 0 0 0 0 0 0 0 0 0 0 0 0 0 0 0 0 0 0 0 0 0 0 0 0 0 1 2 2 1 0 0 0 0 0 0
0 0 0 0 0 0 0 0 0 0 0 0 0 0 0 0 0 0 0 0 0 0 0 0 0 0 0 0 0 0 0 0 0 0 1 3 3 2 1 1 1 1 0 0
0 0 0 0 0 0 0 0 0 0 0 0 0 0 0 0 0 0 0 0 0 0 0 0 0 0 0 0 0 0 0 0 0 0 2 3 3 3 3 2 2 2 1 0
0 0 0 0 0 0 0 0 0 0 0 0 0 0 0 0 0 0 0 0 0 0 0 0 0 0 0 0 0 0 0 0 0 0 1 2 3 3 3 3 3 3 2 1
0 0 0 0 0 0 0 0 0 0 0 0 0 0 0 0 0 0 0 0 0 0 0 0 0 0 0 0 0 0 0 0 0 0 0 1 1 2 3 3 3 3 3 3
0 0 0 0 0 0 0 0 0 0 0 0 0 0 0 0 0 0 0 0 0 0 0 0 0 0 0 0 0 0 0 0 0 0 0 0 0 1 2 3 3 3 3 3
Wind_Speed
5 4 3 4 4 4 5 6 7 7 7 8 6 4 3 2 1 1 1 1 1 1 2 1 1 2 2 2 2 2 2 2 2 2 1 1 1 1 1 1 2 2 3 3
2 2 2 3 5 4 5 4 4 3 6 5 3 2 2 2 1 1 2 2 2 2 2 2 2 2 2 2 2 2 2 2 2 1 1 1 1 1 1 1 1 1 2 3
3 3 2 5 6 6 4 4 6 7 7 3 2 3 4 3 3 3 3 2 2 2 2 3 2 2 2 2 2 2 2 2 1 1 2 2 1 1 1 1 1 2 2 2
1 1 5 7 2 4 3 4 4 4 3 4 4 3 2 2 3 3 3 2 2 2 2 2 2 2 1 1 2 2 2 1 1 1 2 1 1 1 2 2 2 2 2 3
3 3 6 6 3 3 4 4 3 4 3 1 0 2 2 2 2 3 3 2 2 2 2 1 1 1 1 1 2 2 2 2 1 1 2 2 2 2 2 2 2 2 2 3
3 3 6 6 3 2 3 4 3 4 3 2 3 1 4 3 1 1 1 1 1 1 1 0 1 1 2 1 1 1 2 2 2 2 2 2 3 3 2 2 3 2 2 2
4 4 8 6 2 3 3 7 3 4 4 5 4 5 3 1 1 1 1 1 1 0 0 0 0 1 2 1 1 2 2 1 1 1 2 2 2 1 2 2 2 2 2 2
5 5 9 3 4 5 6 2 2 3 4 4 3 2 1 1 1 0 1 1 1 1 1 1 1 2 1 1 2 2 1 0 1 1 1 1 1 1 1 1 1 1 1 2
8 8 4 3 5 4 3 3 3 3 3 4 3 2 2 1 1 1 1 0 0 0 1 1 1 1 1 2 2 1 0 1 1 1 1 1 1 1 1 1 1 2 2 2
4 6 4 4 3 2 2 3 3 2 3 4 3 3 2 2 2 1 1 1 0 1 1 1 1 0 1 1 1 0 0 1 1 1 1 0 0 1 1 1 2 2 2 3
4 5 4 4 3 3 1 0 0 0 1 3 4 3 3 3 2 2 1 1 1 1 1 2 1 1 1 1 1 1 1 1 1 1 1 1 1 1 2 2 3 3 3 3
7 7 5 6 4 3 2 2 3 2 1 2 3 4 3 3 3 2 2 1 1 1 1 2 1 1 1 1 1 1 0 1 1 1 1 1 1 2 3 3 4 4 3 3
7 5 5 5 4 3 3 3 3 3 4 3 2 3 3 3 2 2 1 2 2 2 2 2 1 1 2 1 0 1 0 1 1 1 1 1 1 2 3 4 4 3 4 4
6 3 4 5 5 4 3 3 2 2 2 3 2 2 2 2 2 2 3 3 3 2 1 1 1 1 2 1 1 0 1 1 1 1 1 1 2 2 2 2 3 3 4 4
7 6 7 5 3 3 2 2 2 2 2 2 2 2 3 3 3 3 3 2 1 1 1 1 1 2 2 1 1 1 1 1 1 1 1 1 1 2 2 2 2 3 3 3
4 3 4 4 5 4 3 3 4 4 4 3 3 3 3 3 3 2 1 2 2 2 2 2 2 2 1 1 1 1 1 1 1 0 1 1 1 1 2 2 2 3 3 3
3 3 3 4 5 4 5 5 5 5 4 4 4 4 3 2 1 1 2 2 2 2 2 2 2 2 1 1 1 1 1 1 1 1 1 1 1 1 2 2 2 3 3 3
6 6 5 6 6 5 5 4 4 5 5 5 4 3 3 4 4 4 3 2 1 1 2 2 2 1 1 1 1 1 1 1 1 1 1 1 2 2 2 2 2 3 3 3
3 3 3 4 4 4 4 4 4 4 4 3 4 4 4 4 4 3 2 2 2 2 3 3 2 2 1 2 1 1 1 1 1 1 1 2 2 2 2 2 3 3 2 2
1 2 2 2 2 3 3 3 3 3 3 3 3 3 3 3 3 3 3 3 3 4 3 2 2 2 2 3 2 1 2 2 2 2 2 2 2 3 3 3 3 3 3 3
1 1 1 1 2 2 2 3 3 3 3 3 4 4 4 4 3 3 3 3 4 3 3 3 2 2 3 3 3 2 2 3 2 2 3 3 3 3 3 3 3 3 3 3
1 1 1 2 2 2 2 2 3 3 3 3 3 3 3 3 3 3 4 4 4 3 2 2 2 3 4 3 2 2 3 3 3 3 3 3 3 4 4 4 4 4 4 4
1 2 2 2 3 3 2 2 2 3 3 4 4 4 4 4 3 3 4 4 3 4 3 3 4 6 5 2 2 3 3 4 4 4 4 4 4 4 4 5 4 4 4 4
2 2 2 2 2 1 2 3 3 3 3 3 4 4 4 3 3 3 3 4 5 5 3 4 6 6 4 2 2 3 3 4 4 4 4 4 4 4 4 4 4 5 5 5
3 3 2 2 2 3 4 3 2 2 2 2 3 3 3 3 3 3 2 3 4 4 2 4 6 6 3 2 3 3 3 4 4 4 4 4 4 4 4 4 5 5 5 5
3 3 3 4 4 3 3 2 2 2 2 2 2 2 2 1 2 2 1 2 3 3 2 2 3 3 2 3 3 3 3 4 4 4 4 4 5 5 5 5 6 5 5 5
2 2 2 3 3 3 2 2 3 3 3 4 3 2 2 2 2 2 2 2 2 2 2 2 2 2 2 3 3 3 3 3 4 4 4 4 4 4 5 6 5 5 4 4
Wind_Direction
231 235 214 224 227 199 193 197 202 232 230 249 247 244 256 262 280 338 340 336 323 306 284 285 289 285 247 219 189 168 159 176 206 212 208 197 200 205 196 199 217 213 201 211
266 252 242 247 246 221 217 209 221 245 256 252 255 237 237 235 229 254 277 278 292 299 297 274 264 271 250 223 195 156 164 196 209 197 192 206 216 203 193 223 230 217 212 211
257 307 2 268 233 207 210 206 188 216 240 237 250 236 227 223 219 233 247 263 272 275 272 264 254 248 238 215 178 156 174 194 192 196 202 220 228 198 203 219 213 223 233 223
179 67 234 244 241 189 197 235 213 223 236 215 224 236 226 213 216 238 249 256 267 270 277 283 266 251 224 172 157 162 175 203 199 193 214 222 210 225 224 206 200 221 233 232
147 214 268 283 247 181 185 255 222 212 239 256 64 34 314 291 235 224 232 242 249 253 251 266 284 242 155 144 151 163 189 211 221 205 204 210 222 236 226 203 214 223 223 222
146 193 239 251 249 199 126 268 245 188 204 171 113 130 268 272 249 254 272 275 269 281 302 30 332 113 129 149 161 212 229 221 218 211 210 216 228 235 229 218 231 229 239 237
176 219 258 258 257 113 170 247 235 183 185 171 187 213 237 225 226 236 286 301 309 10 43 296 8 112 130 148 247 258 258 243 226 225 231 231 236 229 218 225 235 242 256 266
166 201 250 236 137 181 221 243 193 183 182 184 212 237 208 187 195 211 336 344 7 59 342 341 68 117 127 269 279 290 290 270 260 255 254 261 222 242 219 198 214 246 263 287
192 214 242 219 212 227 189 203 215 193 193 179 196 223 216 211 214 225 224 276 341 89 3 356 34 133 181 274 295 318 357 269 255 250 249 248 216 221 214 199 217 249 252 265
247 263 263 264 262 275 227 224 223 197 182 177 197 207 208 211 219 230 247 237 242 84 25 329 328 286 233 283 310 47 245 282 299 290 283 289 244 222 208 215 232 249 254 263
251 271 301 288 258 244 240 242 189 219 193 188 181 200 207 214 224 227 230 231 197 188 233 279 302 311 309 313 65 57 342 320 323 316 287 287 283 248 235 232 220 227 234 235
224 222 208 249 252 228 207 221 210 195 230 224 192 201 207 214 224 217 218 222 221 236 246 262 273 289 304 315 117 115 354 316 316 310 303 296 298 314 298 275 281 276 264 255
228 232 223 247 255 234 220 226 218 206 206 221 226 201 198 214 220 208 209 224 225 235 242 241 242 279 295 300 138 142 232 286 297 307 309 296 283 279 302 315 314 304 294 285
229 221 243 239 236 235 230 229 222 216 221 209 207 202 191 197 203 210 221 230 230 224 227 224 226 271 278 253 169 186 247 285 303 277 287 293 289 278 269 281 304 309 304 297
240 224 225 235 230 226 218 189 184 215 219 226 207 194 191 197 211 225 231 221 197 188 211 210 234 276 283 215 190 223 242 258 272 289 297 293 297 304 303 294 289 297 310 309
252 242 218 211 216 219 210 200 204 221 216 214 215 216 215 208 207 216 222 193 176 201 224 220 242 265 262 200 187 224 249 282 335 292 293 303 305 307 307 306 307 307 303 304
200 227 218 214 217 219 218 215 210 214 211 206 212 212 201 189 197 225 236 222 201 213 221 220 238 252 231 197 188 213 224 257 310 319 279 273 283 286 287 291 295 297 298 307
217 219 211 201 204 210 220 219 210 208 208 209 199 188 189 194 210 223 227 218 194 263 261 239 227 210 214 208 196 201 197 203 218 250 267 270 277 279 284 287 290 290 301 311
216 210 213 209 207 202 208 214 214 212 208 191 184 196 205 211 218 225 215 194 200 245 263 252 229 207 227 239 211 188 190 205 228 248 255 277 286 286 285 284 283 281 282 290
209 195 193 202 201 197 207 213 203 204 204 189 186 194 213 223 216 212 202 212 225 230 233 226 214 218 229 232 212 186 194 212 225 240 249 251 260 271 276 279 281 281 278 274
229 214 197 203 224 223 212 205 195 206 208 187 187 203 217 228 216 198 194 233 253 236 227 228 220 229 231 230 217 200 208 221 228 236 245 248 251 257 264 270 273 273 271 273
243 228 227 221 221 249 246 208 199 203 199 199 205 207 208 223 222 218 222 228 239 225 216 226 226 238 246 239 214 215 224 230 237 242 245 248 250 254 258 261 262 266 265 262
243 231 233 235 231 236 241 227 214 205 206 208 212 213 214 220 212 205 239 245 233 236 223 225 242 250 254 230 220 226 232 236 240 243 244 246 250 252 257 262 262 263 261 258
261 251 248 245 221 202 236 250 235 219 210 213 217 216 212 219 239 234 233 248 243 241 227 237 247 253 257 232 229 236 242 246 246 245 246 249 251 252 254 258 261 262 261 258
256 258 254 239 233 237 239 241 238 233 221 227 240 239 227 211 218 234 227 230 244 245 243 254 260 264 257 239 238 243 248 251 254 254 245 249 251 252 255 256 257 260 260 255
254 253 250 240 237 240 234 221 226 234 221 228 245 246 242 235 225 227 223 227 231 247 244 246 252 260 251 249 250 250 251 263 271 266 257 254 251 253 256 257 259 258 254 249
264 263 268 274 267 246 230 221 226 233 222 214 225 234 230 224 216 224 229 236 240 241 242 245 242 241 246 251 255 257 258 259 261 263 263 261 259 257 259 261 263 262 254 246